Regional Weather Roundup
Issued by NWS

Home | Current Version | Previous Version | Text Only | Print | Product List | Glossary On
Versions: 1 2 3 4 5 6 7 8 9 10 11 12 13 14 15 16 17 18 19 20 21 22 23 24 25 26 27 28 29 30 31 32 33 34 35 36 37 38 39 40 41 42 43 44 45 46 47 48 49 50
000
ASUS43 KFSD 300402
RWRSD

WEATHER ROUNDUP FOR SOUTH DAKOTA
NATIONAL WEATHER SERVICE SIOUX FALLS SD
1100 PM CDT WED MAR 29 2017

NOTE: "FAIR" INDICATES FEW OR NO CLOUDS BELOW 12,000 FEET WITH NO
SIGNIFICANT WEATHER AND/OR OBSTRUCTIONS TO VISIBILITY.


SDZ001>005-009-010-012>017-300500-
NORTHWEST AND NORTH CENTRAL SOUTH DAKOTA

CITY           SKY/WX    TMP DP  RH WIND       PRES   REMARKS
BUFFALO          N/A     47  39  74 S15       29.82F
FAITH            N/A     42  37  82 MISG      29.94R
MOBRIDGE       CLEAR     43  33  68 SE9       29.95S
$$

SDZ012>016-024>037-041>051-057-063-072>074-300500-
SOUTHWEST AND SOUTH CENTRAL SOUTH DAKOTA

CITY           SKY/WX    TMP DP  RH WIND       PRES   REMARKS
RAPID CTY ARPT CLEAR     40  36  86 SE6       29.93F
PIERRE         CLEAR     41  33  73 SE14      29.98S
CUSTER         CLEAR     37  33  85 SE3       29.94F
ELLSWORTH AFB  CLEAR     43  40  91 CALM      29.92F
PHILIP         CLEAR     41  36  82 E6        29.98R
PINE RIDGE     MOCLDY    43  39  86 E5        29.96R
SPEARFISH      FAIR      45  37  76 CALM      29.89F
WINNER         CLOUDY    42  38  85 E12       29.99F
$$

SDZ004>011-016>023-039-040-300500-
NORTHEAST SOUTH DAKOTA

CITY           SKY/WX    TMP DP  RH WIND       PRES   REMARKS
ABERDEEN       CLEAR     39  32  76 SE9       30.05F
WATERTOWN      CLOUDY    39  35  86 SE10G17   30.05F
SISSETON         N/A     39  37  92 S8        30.07F
$$

SDZ017-020-022-023-036>040-048>070-300500-
SOUTHEAST SOUTH DAKOTA

CITY           SKY/WX    TMP DP  RH WIND       PRES   REMARKS
SIOUX FALLS    LGT RAIN  39  39 100 E15       30.00F FOG
HURON          CLOUDY    43  36  76 SE9       30.03F
CHAMBERLAIN    CLOUDY    43  39  85 E13       30.01F
MITCHELL       CLOUDY    42  37  82 E9        30.03F
YANKTON        CLOUDY    39  36  87 N12       29.97F
$$

ABBREVIATIONS USED IN REMARKS
   TC - TEMPERATURE IN CELSIUS
  WCI - WIND CHILL INDEX
   HX - HEAT INDEX
  VSB - VISIBILITY




USA.gov is the U.S. government's official web portal to all federal, state and local government web resources and services.